Regional Weather Roundup
Issued by NWS

Home | Current Version | Previous Version | Graphics & Text | Print | Product List | Glossary On
Versions: 1 2 3 4 5 6 7 8 9 10 11 12 13 14 15 16 17 18 19 20 21 22 23 24 25 26 27 28 29 30 31 32 33 34 35 36 37 38 39 40 41 42 43 44 45 46 47 48 49 50
000
ASUS43 KMKX 020611
RWRWI

WISCONSIN REGIONAL WEATHER ROUNDUP
NATIONAL WEATHER SERVICE MILWAUKEE/SULLIVAN WI
100 AM CDT THU APR 02 2015

NOTE: "FAIR" INDICATES FEW OR NO CLOUDS BELOW 12,000 FEET WITH NO
SIGNIFICANT WEATHER AND/OR OBSTRUCTIONS TO VISIBILITY.

WIZ001-002-006>008-014>016-023>028-020700-
NORTHWEST WISCONSIN

CITY           SKY/WX    TMP DP  RH WIND       PRES   REMARKS
SUPERIOR ARPT  CLOUDY    34  32  94 S7        29.49F WCI  28
6HR MIN TEMP:  32; 6HR MAX TEMP:  35;

ASHLAND        CLOUDY    57  49  74 SW12      29.47R
6HR MIN TEMP:  56; 6HR MAX TEMP:  68; 6HR PCP:  0.07;

HAYWARD        CLOUDY    57  51  80 SW10G20   29.52R
6HR MIN TEMP:  52; 6HR MAX TEMP:  62; 6HR PCP:  0.27;

SIREN          CLOUDY    54  48  82 W9        29.56R
6HR MIN TEMP:  54; 6HR MAX TEMP:  62; 6HR PCP:  0.19;

CUMBERLAND     CLOUDY    54  52  94 SW13      29.54S
RICE LAKE      CLOUDY    56  51  82 SW13      29.56S
6HR MIN TEMP:  56; 6HR MAX TEMP:  73; 6HR PCP:  0.19;

CHETEK         CLOUDY    56  53  89 S8        29.55F
6HR MIN TEMP:  55; 6HR MAX TEMP:  74; 6HR PCP:  0.27;

LADYSMITH      LGT RAIN  55  52  88 SW10G24   29.56F
6HR MIN TEMP:  55; 6HR MAX TEMP:  70; 6HR PCP:  0.28;

EAU CLAIRE     CLOUDY    56  54  93 S12       29.58F
6HR MIN TEMP:  56; 6HR MAX TEMP:  75; 6HR PCP:  0.29;

MENOMONIE      CLOUDY    56  55  94 S7        29.58R
6HR MIN TEMP:  56; 6HR MAX TEMP:  75; 6HR PCP:  0.31;

NEW RICHMOND   CLOUDY    55  49  82 W9        29.58R
6HR MIN TEMP:  55; 6HR MAX TEMP:  73; 6HR PCP:  0.25;

OSCEOLA        CLOUDY    55  48  79 W9        29.61R
6HR MIN TEMP:  55; 6HR MAX TEMP:  74; 6HR PCP:  0.12;

$$

WIZ003>005-009-010-017-018-020700-
NORTH CENTRAL WISCONSIN

CITY           SKY/WX    TMP DP  RH WIND       PRES   REMARKS
MANITOWISH WTR CLOUDY    51  47  88 S8        29.51F
6HR MIN TEMP:  46; 6HR MAX TEMP:  55; 6HR PCP:  0.13;

ARBOR VITAE    LGT RAIN  52  46  81 S16       29.52F
6HR MIN TEMP:  48; 6HR MAX TEMP:  57; 6HR PCP:  0.07;

WOODRUFF       LGT RAIN  52  46  81 S16       29.52F
6HR MIN TEMP:  48; 6HR MAX TEMP:  57; 6HR PCP:  0.07;

RHINELANDER    RAIN      52  46  80 SW14      29.61F
6HR MIN TEMP:  49; 6HR MAX TEMP:  56; 6HR PCP:  0.16;

EAGLE RIVER    CLOUDY    50  44  78 S12G20    29.55F
6HR MIN TEMP:  44; 6HR MAX TEMP:  53; 6HR PCP:  0.09;

LAND O LAKES   CLOUDY    49  44  81 SW10      29.52F
6HR MIN TEMP:  45; 6HR MAX TEMP:  53; 6HR PCP:  0.01;

PHILLIPS       LGT RAIN  52  49  89 S15G23    29.54F
6HR MIN TEMP:  50; 6HR MAX TEMP:  65; 6HR PCP:  0.23;

TOMAHAWK       RAIN      50  47  89 CALM      29.62F
6HR MIN TEMP:  50; 6HR MAX TEMP:  59;

MEDFORD        LGT RAIN  53  47  82 SW6       29.63F
6HR MIN TEMP:  53; 6HR MAX TEMP:  68; 6HR PCP:  0.24;

MERRILL        CLOUDY    57  42  57 W7        29.63F
6HR MIN TEMP:  50; 6HR MAX TEMP:  63;

$$

WIZ029-030-035-036-043>047-020700-
CENTRAL WISCONSIN

CITY           SKY/WX    TMP DP  RH WIND       PRES   REMARKS
WAUSAU         CLOUDY    64  35  34 SW13G22   29.63R
6HR MIN TEMP:  62; 6HR MAX TEMP:  69;

MOSINEE        CLOUDY    61  34  36 W13G20    29.68R
MARSHFIELD     LGT RAIN  59  42  53 W12       29.66R
6HR MIN TEMP:  59; 6HR MAX TEMP:  72; 6HR PCP: TRACE;

STEVENS POINT  CLOUDY    60  35  39 SW15G21   29.65R
6HR MIN TEMP:  60; 6HR MAX TEMP:  69;

WAUPACA        CLOUDY    62  36  37 S15       29.64F
6HR MIN TEMP:  62; 6HR MAX TEMP:  72;

WAUTOMA        MOCLDY    62  37  39 S12       29.67S
6HR MIN TEMP:  62; 6HR MAX TEMP:  73;

WISC RAPIDS    CLOUDY    63  33  32 SW16G25   29.66R
6HR MIN TEMP:  63; 6HR MAX TEMP:  72;

CAMP DOUGLAS   CLOUDY    64  37  36 SW16G25   29.66R
6HR MIN TEMP:  63; 6HR MAX TEMP:  73;

$$

WIZ011>013-019>022-031-037>040-048>050-020700-
NORTHEAST WISCONSIN

CITY           SKY/WX    TMP DP  RH WIND       PRES   REMARKS
ANTIGO         CLOUDY    54  37  52 SW5       29.65R
6HR MIN TEMP:  44; 6HR MAX TEMP:  56;

SHAWANO        CLOUDY    61  37  41 S9        29.62F
6HR MIN TEMP:  55; 6HR MAX TEMP:  64;

OCONTO         CLOUDY    60  39  46 S14G23    29.62F
6HR MIN TEMP:  48; 6HR MAX TEMP:  61;

STURGEON BAY   CLOUDY    48  37  66 S14       29.66F
6HR MIN TEMP:  45; 6HR MAX TEMP:  54;

GREEN BAY      CLOUDY    58  41  53 SW14      29.66F
6HR MIN TEMP:  54; 6HR MAX TEMP:  61;

MANITOWOC      PTCLDY    45  38  76 S10       29.70F
6HR MIN TEMP:  44; 6HR MAX TEMP:  50;

APPLETON       MOCLDY    55  37  50 S16       29.67S
CLINTONVILLE   CLOUDY    61  36  39 SW15G23   29.62F
OSHKOSH        PTCLDY    58  40  51 S18G30    29.66F
6HR MIN TEMP:  56; 6HR MAX TEMP:  63;

$$

WIZ032>034-041-042-053>061-020700-
SOUTHWEST WISCONSIN

CITY           SKY/WX    TMP DP  RH WIND       PRES   REMARKS
LA CROSSE      LGT RAIN  65  46  50 SW15      29.65F
6HR MIN TEMP:  64; 6HR MAX TEMP:  75; 6HR PCP: TRACE;

SPARTA         CLOUDY    65  35  33 SW8       29.68R
6HR MIN TEMP:  64; 6HR MAX TEMP:  73;

VIROQUA        CLOUDY    61  38  42 SW17G23   29.70R
6HR MIN TEMP:  60; 6HR MAX TEMP:  71;

BOSCOBEL       MOCLDY    63  37  38 S9        29.67F
6HR MIN TEMP:  63; 6HR MAX TEMP:  76; 6HR PCP: TRACE;

PRAIRIE DU CHI MOCLDY    60  37  40 W12       29.73R
6HR MIN TEMP:  60; 6HR MAX TEMP:  75;

PLATTEVILLE    PTCLDY    57  39  51 SE14      29.69F
6HR MIN TEMP:  56; 6HR MAX TEMP:  71;

$$

WIZ056-057-062-063-064-067-068-020700-
SOUTH CENTRAL WISCONSIN

CITY           SKY/WX    TMP DP  RH WIND       PRES   REMARKS
REEDSBURG      MOCLDY    61  39  43 S17G24    29.67S
6HR MIN TEMP:  61; 6HR MAX TEMP:  72;

BARABOO/DELLS  MOCLDY    60  36  39 SW16G22   29.69R
6HR MIN TEMP:  60; 6HR MAX TEMP:  72;

LONE ROCK      MOCLDY    62  37  39 S7        29.69S
6HR MIN TEMP:  61; 6HR MAX TEMP:  73;

MINERAL POINT  PTCLDY    59  36  41 S13       29.70F
MADISON        PTCLDY    58  39  49 S10       29.72S
6HR MIN TEMP:  58; 6HR MAX TEMP:  71;

MIDDLETON      PTCLDY    59  37  44 S15       29.72S
6HR MIN TEMP:  59; 6HR MAX TEMP:  72;

WATERTOWN      CLEAR     56  40  54 S13G22    29.73F
6HR MIN TEMP:  56; 6HR MAX TEMP:  69;

MONROE         PTCLDY    54  41  62 S20       29.73F
JANESVILLE     PTCLDY    61  36  39 S14G25    29.74S
$$

WIZ051-052-058>065-066-070>072-020700-
SOUTHEAST WISCONSIN

CITY           SKY/WX    TMP DP  RH WIND       PRES   REMARKS
MILWAUKEE      PTCLDY    59  37  44 S13       29.76F
6HR MIN TEMP:  57; 6HR MAX TEMP:  62;

WAUKESHA       CLEAR     55  36  47 S10G18    29.77S
MILWAUKEE/TIMM CLEAR     59  36  41 S15G23    29.76S
RACINE         PTCLDY    59  37  44 S9G20     29.78F
6HR MIN TEMP:  51; 6HR MAX TEMP:  62;

BURLINGTON     PTCLDY    57  37  47 S12G21    29.77S
6HR MIN TEMP:  56; 6HR MAX TEMP:  67;

KENOSHA        PTCLDY    60  38  43 S16G23    29.77F
6HR MIN TEMP:  60; 6HR MAX TEMP:  67;

FOND DU LAC    PTCLDY    59  39  47 S23G31    29.69F
6HR MIN TEMP:  58; 6HR MAX TEMP:  65;

SHEBOYGAN      PTCLDY    51  38  60 S10       29.72S
6HR MIN TEMP:  48; 6HR MAX TEMP:  54;

WEST BEND      CLEAR     59  36  41 S15G23    29.73F
JUNEAU         PTCLDY    56  39  53 S16       29.73F
6HR MIN TEMP:  56; 6HR MAX TEMP:  68;

$$

LSZ147-162-020700-
LAKE SUPERIOR

STATION/POSITION TIME  TEMP    WIND        PRES    WAVE
                       AIR SEA DIR/SP/G            HT/PER
                 (UTC) (F)     (DEG/KT/KT) (MB)    (FT/S)
DEVILS ISLAND    0600   35     240/ 14/ 15  998.2S
PORT WING        0520   34     240/  4/ 11  999.3R
SAXON HARBOR     0500   61     200/ 12/ 25  996.6
$$

LMZ867-665-643>646-020700-
LAKE MICHIGAN

STATION/POSITION TIME  TEMP    WIND        PRES    WAVE



USA.gov is the U.S. government's official web portal to all federal, state and local government web resources and services.